Content
SEND FEEDBACK

Daily
Averages
Monthly
Summary
United States of America

BOILING SPRING LAKES, NORTH CAROLINA


Home > North America > United States > North Carolina
Elevation: 20 feet     Latitude: 34 00N     Longitude: 078 01W

WEATHER
 
SELECT A DAY
Number of Records: 136,970;   Date Range: 8/21/01 - 9/18/14
 
SHARE

PRINT THIS DATA

[ ← Previous Day ]
WEATHER ALMANAC - FEBRUARY 24, 2013
[ Next Day → ]
[ °C ]   °F
Weather ElementAverageHighLow
Temperature49.9 °F61 °F (2:55 pm)44.6 °F (3:15 am)
Dewpoint45.6 °F47.3 °F (1:35 am)41.2 °F (2:55 pm)
Humidity86.5 %99 % (2:55 am)48 % (2:55 pm)
Barometer29.91 in30.02 in (9:55 pm)29.75 in (1:15 am)
Wind Speed7.2 mph11.5 mph (2:35 am)
Wind Gust17.3 mph (2:35 am)
Weather ElementAverage
Visibility8.8 mi
Wind DirectionWNW (281.4 °)

Weather ElementTotal
Precipitation0.07 in
Heating Degree Days12.2 (Base 65)
Growing Degree Days2.8 (Base 50)
Averaged from 71 records on February 24, 2013
WEATHER CONDITIONS BREAKOUT
WIND DIRECTION BREAKOUT
WEATHER BY HOUR - FEBRUARY 24, 2013
[ °C ]   °F
Local TimeTemperatureDewpointHumidityBarometerVisibilityWind DirectionWind SpeedGust SpeedPrecipitationEventsConditions
12:35 AM46.2 °F45.7 °F98 %29.76 in7.0 miSE (130°)8.1 mph0.03 inRainLight Rain
12:55 AM47.3 °F46.6 °F97 %29.82 in10.0 miWNW (290°)5.8 mph0.03 inMostly Cloudy
1:15 AM47.3 °F46.8 °F98 %29.75 in7.0 miSE (130°)8.1 mphLight Drizzle
1:35 AM47.8 °F47.3 °F98 %29.77 in10.0 miNW (310°)3.5 mphScattered Clouds
1:55 AM47.3 °F46.6 °F97 %29.79 in7.0 miNW (320°)5.8 mphMostly Cloudy
2:15 AM46.2 °F45.5 °F97 %29.80 in5.0 miNW (320°)10.4 mphOvercast
2:35 AM45.3 °F44.8 °F98 %29.80 in3.0 miNNW (330°)11.5 mph17.3 mphOvercast
2:55 AM45.0 °F44.6 °F99 %29.80 in4.0 miNNW (330°)10.4 mph16.1 mphOvercast
3:15 AM44.6 °F44.2 °F99 %29.81 in4.0 miNNW (330°)8.1 mphOvercast
3:35 AM44.8 °F44.4 °F99 %29.81 in1.8 miWNW (300°)6.9 mphOvercast
3:55 AM45.0 °F44.6 °F99 %29.82 in0.8 miWNW (290°)6.9 mph0.01 inOvercast
4:15 AM45.5 °F45.3 °F99 %29.82 in1.8 miWNW (290°)8.1 mphOvercast
4:35 AM45.9 °F45.7 °F99 %29.82 in3.0 miWest (280°)8.1 mphOvercast
4:55 AM46.8 °F46.4 °F99 %29.82 in7.0 miWest (280°)8.1 mphOvercast
5:15 AM46.8 °F46.4 °F99 %29.84 in7.0 miWNW (290°)11.5 mphOvercast
5:35 AM46.4 °F45.5 °F97 %29.84 in10.0 miWNW (300°)8.1 mphOvercast
5:55 AM46.0 °F45.0 °F96 %29.84 in10.0 miWNW (300°)8.1 mphOvercast
6:15 AM45.7 °F44.6 °F96 %29.84 in10.0 miWNW (300°)9.2 mphOvercast
6:35 AM45.1 °F44.1 °F96 %29.85 in10.0 miWNW (290°)6.9 mphOvercast
6:55 AM45.0 °F43.9 °F96 %29.86 in10.0 miNW (310°)9.2 mphOvercast
7:15 AM44.8 °F43.7 °F96 %29.88 in10.0 miWNW (300°)11.5 mphOvercast
7:35 AM44.8 °F43.7 °F96 %29.89 in10.0 miNW (310°)10.4 mphOvercast
7:55 AM44.6 °F43.3 °F95 %29.90 in10.0 miWNW (300°)9.2 mphOvercast
8:15 AM44.6 °F43.7 °F97 %29.91 in10.0 miNW (320°)9.2 mphOvercast
8:35 AM44.8 °F43.9 °F97 %29.93 in5.0 miNW (320°)6.9 mphOvercast
8:55 AM44.8 °F43.9 °F97 %29.93 in3.0 miNW (310°)8.1 mphOvercast
9:15 AM45.0 °F44.1 °F97 %29.94 in5.0 miNW (320°)9.2 mphOvercast
9:35 AM45.9 °F44.2 °F94 %29.93 in10.0 miNW (310°)11.5 mphOvercast
9:55 AM46.8 °F44.4 °F92 %29.94 in10.0 miNNW (340°)10.4 mphOvercast
10:15 AM47.7 °F44.8 °F90 %29.94 in10.0 miNW (310°)9.2 mph17.3 mphOvercast
10:35 AM49.1 °F45.1 °F86 %29.94 in10.0 miNNW (330°)9.2 mphOvercast
10:55 AM50.9 °F45.3 °F81 %29.95 in10.0 miNNW (330°)8.1 mph16.1 mphMostly Cloudy
11:15 AM51.8 °F45.7 °F80 %29.95 in10.0 miNNW (330°)11.5 mphScattered Clouds
11:35 AM52.9 °F45.5 °F76 %29.95 in10.0 miNW (320°)11.5 mph17.3 mphScattered Clouds
11:55 AM54.7 °F45.9 °F72 %29.94 in10.0 miNorth (350°)11.5 mphClear
12:15 PM55.8 °F45.9 °F69 %29.94 in10.0 miNW (310°)8.1 mphClear
12:35 PM56.8 °F46.4 °F68 %29.93 in10.0 miNW (310°)8.1 mphClear
12:55 PM57.9 °F45.7 °F64 %29.93 in10.0 miNNW (330°)3.5 mphClear
1:15 PM58.5 °F43.7 °F58 %29.92 in10.0 miNorth (350°)5.8 mphClear
1:35 PM59.4 °F44.4 °F58 %29.92 in10.0 miWNW (300°)6.9 mphClear
1:55 PM60.4 °F44.4 °F56 %29.91 in10.0 miNNW (340°)4.6 mphClear
2:15 PM60.3 °F42.8 °F53 %29.91 in10.0 miWNW (290°)8.1 mphClear
2:35 PM60.1 °F42.6 °F53 %29.91 in10.0 miNW (320°)6.9 mphClear
2:55 PM61.0 °F41.2 °F48 %29.91 in10.0 miWSW (250°)4.6 mphClear
3:15 PM59.0 °F47.3 °F65 %29.91 in10.0 miSW (220°)4.6 mphClear
3:35 PM57.2 °F47.1 °F69 %29.91 in10.0 miSW (230°)9.2 mphClear
3:55 PM57.0 °F47.3 °F70 %29.92 in10.0 miWSW (250°)8.1 mphClear
4:15 PM56.5 °F46.6 °F69 %29.92 in10.0 miWSW (240°)8.1 mphClear
4:35 PM55.8 °F46.6 °F71 %29.92 in10.0 miSW (230°)5.8 mphClear
4:55 PM55.2 °F46.8 °F73 %29.92 in10.0 miWSW (240°)6.9 mphClear
5:15 PM54.9 °F46.4 °F73 %29.92 in10.0 miWSW (240°)6.9 mphClear
5:35 PM53.8 °F46.4 °F76 %29.93 in10.0 miSW (230°)5.8 mphClear
5:55 PM52.2 °F47.3 °F83 %29.94 in10.0 miWSW (240°)4.6 mphClear
6:15 PM50.9 °F46.9 °F86 %29.95 in10.0 miWSW (240°)4.6 mphClear
6:35 PM50.0 °F46.8 °F89 %29.95 in10.0 miWSW (240°)3.5 mphClear
6:55 PM49.5 °F46.9 °F91 %29.97 in10.0 miWest (260°)3.5 mphClear
7:15 PM49.3 °F46.9 °F92 %29.98 in10.0 miWSW (250°)3.5 mphClear
7:35 PM49.3 °F46.9 °F92 %29.98 in10.0 miWSW (250°)5.8 mphClear
7:55 PM49.3 °F47.3 °F93 %29.99 in10.0 miWSW (250°)5.8 mphClear
8:15 PM49.3 °F46.9 °F92 %29.99 in10.0 miWest (260°)4.6 mphClear
8:35 PM48.6 °F46.4 °F92 %29.98 in10.0 miWest (270°)3.5 mphClear
8:55 PM47.7 °F45.7 °F93 %29.99 in10.0 miWSW (240°)4.6 mphClear
9:15 PM48.4 °F46.6 °F93 %30.00 in10.0 miWSW (250°)5.8 mphClear
9:35 PM48.2 °F46.4 °F93 %30.01 in10.0 miWest (260°)5.8 mphClear
9:55 PM48.7 °F46.9 °F93 %30.02 in10.0 miWSW (250°)6.9 mphClear
10:15 PM49.1 °F47.1 °F93 %30.02 in10.0 miWSW (240°)6.9 mphClear
10:35 PM49.1 °F47.3 °F93 %30.01 in10.0 miWSW (250°)5.8 mphClear
10:55 PM48.6 °F46.9 °F94 %30.01 in10.0 miWSW (250°)4.6 mphClear
11:15 PM48.0 °F46.6 °F95 %30.01 in10.0 miWSW (250°)3.5 mphClear
11:35 PM47.5 °F46.2 °F95 %30.01 in10.0 miWSW (250°)3.5 mphClear
11:55 PM47.7 °F46.6 °F96 %30.00 in10.0 miWest (280°)4.6 mphClear
Hourly data recorded from KSUT, located miles away from Boiling Spring Lakes, North Carolina







STORIES FROM OUR PARTNERS